Location: ???? ?????
(30.0052°N, 31.2891°E)
Time: 20:03:49
(UTC+00:00)

SEDSat Delta rocket - Pass Details

Date: 07 October 2022
Orbit: 532 x 995 km, 31.4° (Epoch: 07 December)

Event Time Altitude Azimuth Distance (km) Brightness Sun altitude
Rises 16:29:43 0° 281° (WNW) 3,180 8.5 -13.0°
Reaches altitude 10° 16:32:02 10° 280° (W) 2,326 7.4 -13.5°
Maximum altitude 16:37:36 74° 196° (SSW) 890 3.8 -14.7°
Enters shadow 16:41:58 21° 114° (ESE) 1,933 5.0 -15.7°
